DL7AND-2 Weather Reports


Display with metric or nautical units.
time (UTC)temp
F
wind
direction
speed
MPH
gust
MPH
rain 1hr
in
rain 24hr
in
rain mn
in
humidity
%
barometer
mb
20260505031747 57 270 1.0 2.0 0.00 0.00 0.00 76 1009.2
20260505030703 57 0.0 0.0 0.00 0.00 0.00 76 1009.2
20260505025727 57 270 1.0 2.0 0.00 0.00 0.00 76 1009.3
20260505024703 57 0.0 0.0 0.00 0.00 0.00 75 1009.5
20260505023847 58 0.0 0.0 0.00 0.00 0.00 75 1009.4
20260505022703 58 0.0 0.0 0.00 0.00 0.00 75 1009.4
20260505021747 58 270 2.0 3.0 0.00 0.00 0.00 76 1009.6
20260505020703 58 0.0 0.0 0.00 0.00 0.00 76 1009.8
20260505015747 58 270 1.0 2.0 0.00 0.00 0.00 76 1009.7
20260505014703 58 270 3.0 3.0 0.00 0.00 0.00 76 1009.8
20260505013727 58 270 0.0 1.0 0.00 0.00 0.00 77 1009.8
20260505012703 57 270 0.0 1.0 0.00 0.00 0.00 78 1009.8
20260505011727 57 270 0.0 1.0 0.00 0.00 0.00 78 1009.4
20260505010619 57 0.0 0.0 0.00 0.00 0.00 78 1009.4
20260505005727 57 0.0 0.0 0.00 0.00 0.00 78 1009.6
20260505004703 57 0.0 0.0 0.00 0.00 0.00 78 1009.7
20260505003727 57 0.0 0.0 0.00 0.00 0.00 78 1009.9
20260505002703 56 0.0 0.0 0.00 0.00 0.00 79 1010.0
20260505001727 56 270 1.0 2.0 0.00 0.00 0.00 78 1010.1
20260505000723 56 0.0 0.0 0.00 0.00 0.00 78 1010.2
20260504235727 56 0.0 0.0 0.00 0.00 0.00 78 1010.1
20260504234803 56 0.0 0.0 0.00 0.00 0.00 78 1009.9
20260504233807 56 0.0 0.0 0.00 0.00 0.00 76 1010.4
20260504232740 56 0.0 0.0 0.00 0.00 0.00 76 1010.2
20260504231727 56 0.0 0.0 0.00 0.00 0.00 75 1010.2
20260504230743 57 0.0 0.0 0.00 0.00 0.00 74 1010.2
20260504225747 57 0.0 0.0 0.00 0.00 0.00 75 1010.5
20260504224703 57 0.0 0.0 0.00 0.00 0.00 75 1010.4
20260504223747 57 0.0 0.0 0.00 0.00 0.00 74 1010.6
20260504222703 57 0.0 0.0 0.00 0.00 0.00 74 1010.5
20260504221727 57 270 1.0 2.0 0.00 0.00 0.00 74 1010.5
20260504220719 57 270 0.0 1.0 0.00 0.00 0.00 73 1010.4
20260504215727 58 270 0.0 1.0 0.00 0.00 0.00 72 1010.6
20260504214703 58 0.0 0.0 0.00 0.00 0.00 72 1010.4
20260504213727 58 0.0 0.0 0.00 0.00 0.00 72 1010.8
20260504212739 59 0.0 0.0 0.00 0.00 0.00 72 1010.6
20260504211747 59 0.0 1.0 0.00 0.00 0.00 72 1010.8
20260504210723 59 270 0.0 1.0 0.00 0.00 0.00 73 1010.9
20260504205727 59 0.0 0.0 0.00 0.00 0.00 72 1010.5
20260504204803 59 0.0 0.0 0.00 0.00 0.00 72 1010.5
20260504203727 59 270 0.0 1.0 0.00 0.00 0.00 72 1010.8
20260504202824 59 270 0.0 1.0 0.00 0.00 0.00 71 1010.7
20260504201807 60 0.0 0.0 0.00 0.00 0.00 70 1010.7
20260504200619 60 0.0 0.0 0.00 0.00 0.00 70 1010.4
20260504195747 61 0.0 0.0 0.00 0.00 0.00 69 1010.5
20260504194619 61 0.0 0.0 0.00 0.00 0.00 68 1010.5
20260504193747 62 0.0 0.0 0.00 0.00 0.00 67 1010.2
20260504192804 63 0.0 0.0 0.00 0.00 0.00 66 1010.3
20260504191808 64 0.0 0.0 0.00 0.00 0.00 61 1010.5
20260504190703 64 0.0 0.0 0.00 0.00 0.00 60 1010.4
20260504185727 65 0.0 0.0 0.00 0.00 0.00 59 1010.3
20260504184703 66 270 0.0 1.0 0.00 0.00 0.00 57 1010.2
20260504182619 68 0.0 0.0 0.00 0.00 0.00 54 1010.1
20260504181727 69 270 1.0 2.0 0.00 0.00 0.00 52 1010.0
20260504180723 70 270 1.0 2.0 0.00 0.00 0.00 51 1010.1
20260504175727 71 270 1.0 2.0 0.00 0.00 0.00 50 1010.1
20260504174743 72 270 2.0 3.0 0.00 0.00 0.00 44 1010.1
20260504173748 73 270 3.0 3.0 0.00 0.00 0.00 43 1010.2
20260504172703 74 270 1.0 3.0 0.00 0.00 0.00 43 1009.9
20260504171748 75 270 3.0 4.0 0.00 0.00 0.00 42 1010.1
20260504170703 77 270 0.0 2.0 0.00 0.00 0.00 40 1010.1
20260504150703 76 270 4.0 6.0 0.00 0.00 0.00 42 1010.2
20260504140743 74 270 3.0 5.0 0.00 0.00 0.00 43 1010.5
20260504130723 73 270 2.0 3.0 0.00 0.00 0.00 46 1011.0
20260504081909 69 225 3.0 5.0 0.00 0.00 0.00 56 1011.9
20260504080704 68 247 3.0 6.0 0.00 0.00 0.00 56 1011.5
20260504050658 59 0.0 0.0 0.00 0.00 0.00 70 1010.6
20260504045748 59 0.0 0.0 0.00 0.00 0.00 70 1010.3
20260504044745 58 225 0.0 1.0 0.00 0.00 0.00 71 1010.1
20260504043909 58 0.0 0.0 0.00 0.00 0.00 71 1010.3
20260504042704 58 0.0 0.0 0.00 0.00 0.00 71 1010.0
20260504041748 58 0.0 0.0 0.00 0.00 0.00 71 1009.8
20260504035728 58 0.0 0.0 0.00 0.00 0.00 70 1009.9
20260504034638 59 0.0 0.0 0.00 0.00 0.00 68 1009.7
20260504033728 59 0.0 0.0 0.00 0.00 0.00 67 1009.7
20260504032744 59 0.0 0.0 0.00 0.00 0.00 66 1009.8